Location: Unspecified
(0.0000°N, 0.0000°E)
Time: 19:34:20
(UTC+00:00)

IRIDIUM 169 - Visible Passes

Search period start: 14 January 2025 00:00
Search period end: 24 January 2025 00:00
Orbit: 762 x 764 km, 86.4° (Epoch: 14 January)

Date Brightness Start Highest point End Pass type
(mag) Time Alt. Az. Time Alt. Az. Time Alt. Az.
14 Jan ? 19:41:55 11° SE 19:41:55 11° SE 19:42:07 10° SE visible
14 Jan ? 21:22:01 11° SW 21:22:01 11° SW 21:22:17 10° SW visible
15 Jan ? 20:43:35 25° SSW 20:43:35 25° SSW 20:45:44 10° SSW visible
16 Jan ? 20:05:03 34° SSE 20:05:03 34° SSE 20:08:02 10° S visible
17 Jan ? 19:26:25 21° ESE 19:26:25 21° ESE 19:29:14 10° SE visible
17 Jan ? 21:06:31 18° WSW 21:06:31 18° WSW 21:08:56 10° SW visible
18 Jan ? 20:27:46 48° W 20:27:46 48° W 20:32:32 10° SSW visible
19 Jan ? 19:48:53 53° NE 19:49:51 66° E 19:54:57 10° S visible
20 Jan ? 19:09:47 18° NE 19:12:07 25° E 19:16:18 10° SE visible
20 Jan ? 20:49:50 13° WNW 20:52:14 17° W 20:55:31 10° SW visible
21 Jan ? 20:10:23 14° NNW 20:14:28 43° W 20:19:20 10° SSW visible
22 Jan ? 19:31:37 10° N 19:36:44 73° E 19:41:51 10° S visible
23 Jan ? 18:54:38 10° NNE 18:58:59 28° E 19:03:20 10° SSE visible
23 Jan ? 20:36:09 10° NW 20:39:05 15° W 20:42:02 10° SW visible
